Погода Бабаево

Поиск расширенной информации на нашем сайте:

Полезная информация:

Новости сайта



02.01.2020
Опубликован Долгосрочный прогноз погоды по городам России и ближнего зарубежья на январь 2020 года.
Карты: Прогноз на январь и февраль 2020 года, Сравнение прогнозируемой аномалии приземной температуры воздуха на январь 2020 года по разным моделям.




Погода Бабаево - сегодня

Время (UTC), дата Ветер
(°,м/с) 
Видим.   Явления Облачность Т
(°С)
Тd
(°С)
f(%) Тe
(°С)
Pmin
(гПа)
dP
(гПа)
Po
(мм)
O2
(г/м3)
Тmin Tmax R s Состояние
почвы
03 26.11.20 160 (Ю) 20000 м    10/10 1050 м кучево-дожд. 
[Cb cap]
-1.1 -1 100 -1  1016.7  -1.1  749  303  -3.4      мокрый или
старый снег
50-90% 
12 26.11.20 180 (Ю) 4000 м  слаб. снег  10/8 210 м средняя 
[Frnb|As op]
-0.5 -0.6 99 -3  1009.7  -2.7  744  301           
15 26.11.20 190 (Ю) 4000 м  слаб. переохл. дождь (гололёд){снег}  10/8 240 м средняя 
[Frnb|As op]
+0 +0 100 -2  1008  -1.7  743  299    +0     
18 26.11.20 200 (Ю) 4000 м  слаб. дождь{снег}  10/8 210 м средняя 
[Frnb|As op]
+0.5 +0.5 100 1006.2  -1.8  742  298           
03 27.11.20 210 (ЮЗ) 4000 м  слаб. снег{дождь}  10/8 240 м средняя 
[Frnb|As op]
+0.1 +0.1 100 +1  1004.6  -0.2  741  298  +0    равномерный
мокрый или
старый снег
100% 
12 27.11.20 070 (В) 4000 м  слаб. снег  10/10 120 м 
[Frnb|Ns]
+0.3 +0.3 100 +1  1008.8  1.4  744  299           
15 27.11.20 080 (В) 10 км  слаб. снег  10/10 150 м 
[Frnb|Ns]
+0.2 +0.2 100 -1  1010.8  745  300    +0.5     
18 27.11.20 080 (В) 10 км  слаб. снег  10/10 270 м 
[Frnb|Ns]
+0.3 +0.3 100 1013.3  2.5  747  301           
03 28.11.20 080 (В) 10 км  слаб. снег  10/10 330 м 
[Frnb|Ns]
-1.1 -1.5 97 -2  1021.2  753  305  -1.1    0.4  равномерный
мокрый или
старый снег
100% 
12 28.11.20 070 (В) 10 км  слаб. снег  10/8 210 м средняя 
[Frnb|As op]
-2.3 -2.9 96 -4  1027.5  1.4  758  308           
15 28.11.20 080 (В) 20000 м  {снег}  10/8 210 м средняя 
[Frnb|As op]
-2.7 -3.4 95 -4  1029.7  759  309    -1.1  0.3     
18 28.11.20 080 (В) 10 км  слаб. снег  10/8 210 м средняя 
[Frnb|As op]
-3.3 -4.1 94 -4  1031.1  1.3  760  310           
03 29.11.20 090 (В) 20000 м    10/3 300 м средняя 
[Frnb|As op]
-4.4 -5.3 93 -6  1033.8  -0.6  762  313  -4.4    0.2  равномерный
сухой снег
100% 
12 29.11.20 100 (В) 20000 м    10/8 240 м средняя 
[Frnb|As op]
-3.7 -3.9 99 -5  1033.6  -0.6  762  312           
15 29.11.20 090 (В) 10 км  слаб. снег  10/8 210 м средняя 
[Frnb|As op]
-3.1 -3.2 99 -4  1033.2  -0.4  762  311    -3.1  0.0     
18 29.11.20 100 (В) 20000 м  {снег}  10/10 210 м 
[St]
-2.1 -2.1 100 -4  1032.1  -0.9  761  309           
03 30.11.20 130 (ЮВ) 4000 м  слаб. снег  10/10 210 м 
[Frnb|Ns]
+0.5 +0.5 100 -1  1029.3  -0.7  759  305  -3.1    0.6  равномерный
мокрый или
старый снег
100% 
12 30.11.20 160 (Ю) 4000 м  слаб. снег  10/8 270 м средняя 
[Frnb|As op]
+0.7 +0.7 100 -1  1026.1  -1.4  757  304           
15 30.11.20 150 (ЮВ) 4000 м  слаб. снег  10/8 240 м средняя 
[Frnb|As op]
+0.3 +0.3 100 -1  1025.4  -0.7  756  304    +1.1  0.7     
18 30.11.20 170 (Ю) 4000 м  слаб. снег  10/8 240 м средняя 
[Frnb|As op]
+0.3 +0.3 100 -1  1025  -0.4  756  304           
03 01.12.20 180 (Ю) 20000 м    9/9 1230 м 
[Sc]
-0.9 -1.6 95 -2  1025.5  0.2  756  306  -1    равномерный
сухой снег
100% 
12 01.12.20 200 (Ю) 20000 м    10/10 720 м 
[Sc]
-0.6 -1.8 92 -2  1028.8  1.4  758  307           
15 01.12.20 210 (ЮЗ) 20000 м    10/10 500 м кучево-дожд. 
[Cb cap]
-0.7 -1.4 95 -2  1029.2  0.4  759  307    +0.4       
18 01.12.20 230 (ЮЗ) 20000 м    10/10 400 м кучево-дожд. 
[Cb cap|Ac trans]
-0.6 -1.8 92 -2  1031.1  1.8  760  307           
03 02.12.20 230 (ЮЗ) 20000 м    10/10 570 м кучево-дожд. 
[Cb cap|Ac trans]
-1.3 -1.8 96 -2  1033.8  0.6  762  309  -1.3      равномерный
сухой снег
100% 
Время (UTC), дата Ветер
(°,м/с) 
Видим.   Явления Облачность Т
(°С)
Тd
(°С)
f(%) Тe
(°С)
Pmin
(гПа)
dP
(гПа)
Po
(мм)
O2
(г/м3)
Тmin Tmax R s Состояние
почвы

Для получения пояснительной информации подведите курсор к названию столбца.

ПОГОДА Бабаево - архив

Всё, что Вы хотите узнать о погоде Бабаево - удобно и подробно!

Выберите нужную дату (начиная с 1 января 2019* года) и нажмите кнопку "Найти".
Будут отображены архивные сводки погоды по пункту Бабаево, начиная с указанной даты.


Отображать данные в формате CSV (для использования в таблицах Excel)


Внимание! Наш архив погоды предназначен исключительно для личного некоммерческого использования в познавательных целях. Если Вам необходимы официальные справки о состоянии погоды (для производственных, юридических, коммерческих и т.п. целей), обращайтесь в органы Росгидромета.

*Примечание: данная дата относится к архиву по метеостанциям СССР (Россия, СНГ, Балтия).
Архив по метеостанциям Зарубежной Европы и Азии (кроме Китая) хранится 10 дней, по другим регионам земного шара (Китай, Африка, Америка, Австралия, Океания) - 1 день.

Бабаево - район местоположения метеостанции


Название, широта, долгота, высота метеостанции:
Бабаево 59.4°ш. 35.9°д. 137 м над ур. моря [Российская Федерация]

Дополнительная информация

В oтличие oт бoльшинства пoгoдных сайтoв мы публикуем пoдрoбную метеoинфoрмацию в детальнoм прoфессиoнальнoм фoрмате.

Характеристики температуры и влажнoсти вoздуха измеряются на высoте 2 м в тени вдали oт зданий и деревьев.
Скoрoсть ветра измеряется на высoте 10 м (на урoвне рoста челoвека скoрoсть ветра ниже в 1.5-2 раза). Если метеoстанция нахoдится в гoрoде или в лесу, тo скoрoсть ветра занижена на 2-4 м/с пo сравнению с oткрытым местoм. Скoрoсть ветра над акватoриями крупных рек и oзёр, а также на вершинах хoлмoв на 2-5 м/с выше, чем в oбычных услoвиях.
Атмoсфернoе давление в разных тoчках местнoсти мoжет значительнo oтличаться oт давления на метеoстанции, в зависимoсти oт услoвий рельефа (при пoдъёме на 10 м давление пoнижается примернo на 1 мм рт.ст.).